Погода в Волоколамске

Россия / Московская область     56°02′08″N   35°57′30″E
темп.,
°C
ветер,
м/с
пор.,
м/с
влажн.,
%
обл.,
%
осадки,
мм/ч
давл.,
гПа
погр.,
м
24 июня, чт
чт2400:00+21ю227149 0.0 102114
03:00+20юз22795 0.0 102111
06:00+22ююз22785 0.0 102059
09:00+27ююз23585 0.0 1020442
12:00+30юз234523 0.0 10201438
15:00+32зюз234021 0.0 10181879
18:00+31ю24490 0.0 1016580
21:00+24ю227096 0.0 101715
25 июня, пт
пт2500:00+21ссз1180100 0.3 101814
03:00+19ююв228852 0.6 101719
06:00+21ю258612 0.0 1016122
09:00+27ююз23655 0.0 1016397
12:00+31ююз234941 0.0 10151385
15:00+31ссз224970 0.8 10121863
18:00+19ююз61386100 26.9 1015315
21:00+18с229032 27.1 101417
26 июня, сб
сб2600:00+17ю119299 0.0 101513
03:00+16ю249381 0.0 101371
06:00+18ююз28915 0.0 1014226
09:00+23зюз24725 0.0 1014492
12:00+28юз34555 0.0 10131092
15:00+30юз345099 0.0 10121539
18:00+28юз346417 0.0 1012847
21:00+22зюз22852 0.3 101230
27 июня, вс
вс2700:00+18ссз249266 0.9 101372
03:00+18ссв1190100 2.1 101412
06:00+19св119094 0.1 101350
09:00+24с117371 0.3 1014402
12:00+28ссв025789 0.0 10131143
15:00+29зюз235484 0.3 10131365
18:00+27з34675 0.0 1011344
21:00+22зсз22895 0.8 101222
28 июня, пн
пн2800:00+19ссв259795 0.0 1013114
03:00+18зсз259992 1.0 1012115
06:00+18ссв2399100 2.8 1011121
09:00+22св128899 3.0 1012415
12:00+26ю456385 0.2 10101329
15:00+25юз457697 2.3 1011910
18:00+20ссз479798 3.7 1011407
21:00+19с4798100 4.8 1010421